Location: Ashtead
(51.3000°N, 0.3000°W)
Time: 09:51:21
(UTC+00:00)

Cosmos 1461 - Pass Details

Date: 26 September 2023
Orbit: 493 x 616 km, 65.0° (Epoch: 09 December)

Event Time Altitude Azimuth Distance (km) Brightness Sun altitude
Exits shadow 02:10:16 26° 70° (ENE) 1,222 5.0 -32.1°
Drops below altitude 10° 02:12:33 10° 52° (NE) 1,992 6.5 -31.8°
Enters shadow 03:10:32 -65° 224° (SW) 12,094 9.6 -24.9°
Maximum altitude 03:46:57 40° 322° (NW) 918 3.8 -20.0°
